Regional Weather Roundup
Issued by NWS Jackson, KY

Home | Current Version | Previous Version | Graphics & Text | Print | Product List | Glossary On
Versions: 1 2 3 4 5 6 7 8 9 10 11 12 13 14 15 16 17 18 19 20 21 22 23 24 25 26 27 28
000
ASUS43 KJKL 240510
RWRJKL

EAST KENTUCKY HOURLY WEATHER ROUNDUP
NATIONAL WEATHER SERVICE JACKSON KY
100 AM EDT SUN SEP 24 2017

NOTE: "FAIR" INDICATES FEW OR NO CLOUDS BELOW 12,000 FEET WITH
NO SIGNIFICANT WEATHER AND/OR OBSTRUCTIONS TO VISIBILITY.

* THESE REPORTS ARE NOT UNDER NWS QUALITY CONTROL AND MAY NOT
  REPORT WEATHER SUCH AS PRECIPITATION AND FOG.

KYZ079-080-083-085-087-088-110-112-115-119-120-240600
...EASTERN KENTUCKY...

CITY           SKY/WX    TMP DP  RH WIND       PRES   REMARKS
JACKSON        CLEAR     71  62  73 CALM      30.09S
LONDON         CLEAR     66  63  90 CALM      30.07S
SOMERSET*      CLEAR     64  64 100 CALM      30.08S
MONTICELLO*    CLEAR     64  62  93 W7        30.08S
WILLIAMSBURG*  CLEAR     64  64 100 CALM      30.07S
MIDDLESBORO*   PTCLDY    65  65  99 CALM      30.09S
HARLAN APT*    CLEAR     63  61  94 CALM      30.11S
PIKE CO APT*     N/A     69  64  83 CALM      30.11S
BIG SANDY APT* CLEAR     65  65 100 SE3       30.10S
MOREHEAD APT*  CLEAR     73  59  60 E8        30.10S
$$

KYZ035-036-041-042-044-050-067-078-099-240600
...CENTRAL KENTUCKY...

CITY           SKY/WX    TMP DP  RH WIND       PRES   REMARKS
MT STERLING*   CLEAR     70  63  78 E6        30.09S
FLEMING/MASON* CLEAR     67  64  89 E5        30.10S
DANVILLE*      CLEAR     63  61  94 CALM      30.08S
LEXINGTON      CLEAR     74  63  68 E8        30.08S
FRANKFORT      CLEAR     67  63  87 CALM      30.06S
LOUISVILLE     CLEAR     76  65  68 CALM      30.05S
LEBANON*         N/A     68  63  83 CALM      30.06S
GLASGOW*       CLEAR     68  65  88 NE3       30.04F
BOWLING GREEN  CLEAR     68  66  93 CALM      30.03F
$$

KYZ091>093-OHZ055-061-077-WVZ005-015-034-035-042-240600
...SOUTHERN OHIO/WEST VIRGINIA...

CITY           SKY/WX    TMP DP  RH WIND       PRES   REMARKS
COVINGTON      CLEAR     74  64  71 CALM      30.08S
COLUMBUS       CLEAR     69  61  75 N5        30.10S
DAYTON         CLEAR     69  59  70 NE3       30.12S
WILMINGTON     CLEAR     63  59  87 CALM      30.10S
HUNTINGTON     CLEAR     68  60  75 CALM      30.08S
CHARLESTON     CLEAR     62  59  90 CALM      30.09F
PINEVILLE*     CLEAR     60  58  94 MISG      30.20S
BECKLEY        CLEAR     60  48  64 CALM      30.18F
BLUEFIELD      CLEAR     65  50  58 CALM      30.20S
LOGAN CO APT*    N/A     66  61  82 CALM      30.12S
$$

VAZ002-007-008-TNZ017-027-036-066-071-240600
...SOUTHWEST VIRGINIA/EAST TENNESSEE...

CITY           SKY/WX    TMP DP  RH WIND       PRES   REMARKS
WISE*          CLEAR     68  55  64 S3        30.19S
JONESVILLE*      N/A     63  61  94 CALM      30.12
ABINGDON*      CLEAR     65  59  80 E6        30.15S
BRISTOL        CLEAR     63  60  90 CALM      30.11S
MORRISTOWN*    CLEAR     73  61  64 E6        30.06S
SEVIERVILLE*   MOCLDY    70  63  78 CALM      30.05R
KNOXVILLE      PTCLDY    72  64  76 W7        30.04S
LAFOLLETTE*    CLOUDY    68  66  94 CALM      30.10S
OAK RIDGE      PTCLDY    73  67  81 CALM      30.07S
CROSSVILLE     CLEAR     65  64  97 CALM      30.10F
NASHVILLE      CLEAR     73  69  87 CALM      30.03S
$$

...KEY TO REMARKS...
VSB - VISIBILITY IN MILES
WCI - WIND CHILL INDEX
HX  - HEAT INDEX

$$




USA.gov is the U.S. government's official web portal to all federal, state and local government web resources and services.